Regional Weather Roundup
Issued by NWS Cleveland, OH

Home | Current Version | Previous Version | Graphics & Text | Print | Product List | Glossary On
Versions: 1 2 3 4 5 6 7 8 9 10 11 12 13 14 15 16 17 18 19 20 21 22 23 24 25 26 27 28 29 30 31 32 33 34 35 36 37 38 39 40 41 42 43 44 45 46 47 48 49 50
633
ASUS41 KCLE 250602
RWRCLE
OHIO REGIONAL WEATHER ROUNDUP
NATIONAL WEATHER SERVICE CLEVELAND, OH
200 AM EDT SUN SEP 25 2016

NOTE: "FAIR" INDICATES FEW OR NO CLOUDS BELOW 12,000 FEET WITH NO
SIGNIFICANT WEATHER AND/OR OBSTRUCTIONS TO VISIBILITY.

OHZ001>008-015>018-024>027-034-035-043-044-250700-
   NORTHWEST OHIO

CITY           SKY/WX    TMP DP  RH WIND       PRES   REMARKS
DEFIANCE       CLEAR     57  52  83 CALM      30.21R
FINDLAY        CLEAR     58  49  72 E7        30.20R
TOLEDO EXPRESS CLEAR     54  54 100 CALM      30.21S
TOLEDO EXEC    CLEAR     54  52  93 SE8       30.22R
LIMA           CLEAR     56  52  86 E7        30.19R
$$

OHZ009>014-019>023-028>033-038-089-250700-
   NORTHEAST OHIO

CITY           SKY/WX    TMP DP  RH WIND       PRES   REMARKS
CLE-HOPKINS    CLEAR     57  44  62 E8        30.23S
CLE-LAKEFRONT  CLEAR     59  44  57 SE9       30.21S
CUY CO. ARPT   NOT AVBL
LORAIN-ELYRIA  CLEAR     52  44  74 SE5       30.22S
ASHTABULA      CLEAR     48  45  89 E5        30.24S
AKRON-CANTON   CLEAR     52  46  80 E7        30.20F
WOOSTER        CLEAR     50  46  86 E5        30.21S
MANSFIELD      CLEAR     53  48  83 NE6       30.21R
YOUNGSTOWN     CLEAR     50  45  83 NE7       30.22R
$$

OHZ042-051>053-060>062-070>072-077>081-250700-
  SOUTHWEST OHIO

CITY           SKY/WX    TMP DP  RH WIND       PRES   REMARKS
CINC-COVINGTON CLEAR     71  66  84 NE6       30.14R
CINC-LUNKEN    CLEAR     65  65 100 CALM      30.14R FOG
HAMILTON       CLEAR     62  60  93 CALM      30.15S
DAYTON         CLEAR     60  55  83 NE6       30.18S
WRIGHT-PAT AFB CLEAR     62  56  82 NE8       30.17R
DAYTON GENERAL CLEAR     63  56  78 NE8       30.15R
WILMINGTON     CLEAR     62  59  90 NE8       30.16R
$$

OHZ036-037-039>041-045>050-054>059-063>069-073>076-082>088-250700-
  CENTRAL AND SOUTHEAST OHIO

CITY           SKY/WX    TMP DP  RH WIND       PRES   REMARKS
COLUMBUS       CLEAR     60  54  80 E5        30.17R
OSU AIRPORT    CLEAR     59  53  80 NE6       30.18R
BOLTON FIELD   CLEAR     60  54  81 NE3       30.18R
RICKENBACK AFB CLEAR     58  54  85 NE5       30.17R
NEWARK         CLEAR     59  53  80 CALM      30.18R
MARION         CLEAR     53  49  86 NE5       30.20R
LANCASTER      CLEAR     59  54  83 CALM      30.17S
ZANESVILLE     CLEAR     58  51  78 N3        30.18S
NEW PHILLY     CLEAR     54  50  86 CALM      30.20S
$$




USA.gov is the U.S. government's official web portal to all federal, state and local government web resources and services.